User: anonymous   Login
Location: Ballingbuur
(53.0000°N, 5.7667°E)
Time: 08:57:22
(UTC+00:00)
Language:

COSMOS 2455 - Orbit

View from above orbital plane
View from above orbital plane
View from above satellite
View from above satellite

Ground track
Ground track

The orbit data is extracted from the following two-line orbital elements,

1 36095U 09063A   21065.84298125 -.00000008  00000-0  48202-4 0  9993
2 36095  67.1460 261.3120 0004627 244.1858 115.8750 13.96776508575865
Epoch (UTC): 06 March 2021 20:13:53
Eccentricity: 0.0004627
inclination: 67.1460°
perigee height: 901 km
apogee height: 908 km
right ascension of ascending node: 261.3120°
argument of perigee: 244.1858°
revolutions per day: 13.96776508
mean anomaly at epoch: 115.8750°
orbit number at epoch: 57586

The dashed part of the orbit path shows where the satellite is in the earth's shadow,  

DLR